Meteo Giornale » Osservazioni meteo Italia » Monte Terminillo

ore: 23:55 - Osservazioni Meteo Monte Terminillo
Lat. 42° 28' N Lon. 12° 59' E Alt. 1874 metri s.l.m.

sereno Europe/Rome

4 °C

Sereno

Temp. 24 Ore

0 °C

5 °C

Nord

13 Km/h

Dew point 4 °C

Umidità 100 %

Visibilità  0 Km

Il sole sorge alle ore 06:12

Il sole tramonta alle ore 20:00

Data e Ora Cielo e Fenomeni T °C DP °C Um. % Pres. hPa Vis. km Vento km/h
Ieri h: 23:55 sereno Sereno 4 4 100 1015 0 N 13
Ieri h: 22:55 sereno Sereno 4 4 100 1015 0 N 13
Ieri h: 20:55 sereno Sereno 4 4 100 1013 0 S/SO 16.7
Ieri h: 19:55 sereno Sereno 4 4 100 1012 0 N 7.4
Ieri h: 18:55 sereno Sereno 5 5 100 1012 0 N 7.4
Ieri h: 17:55 sereno Sereno 5 5 100 1011 0 N 13
Ieri h: 16:55 sereno Sereno 5 5 100 1011 0 N 7.4
Ieri h: 14:55 sereno Sereno 5 5 100 1010 0 N 9.3
Ieri h: 13:55 sereno Sereno 5 5 100 1010 0 N 11.1
Ieri h: 12:55 sereno Sereno 5 5 100 1009 0 N 11.1
Ieri h: 11:55 sereno Sereno 5 5 100 1009 0 N 11.1
Ieri h: 10:55 sereno Sereno 4 4 100 1008 0 S/SO 27.8
Ieri h: 09:55 sereno Sereno 4 4 100 1007 0 S 27.8
Ieri h: 08:55 sereno Sereno 4 4 100 1007 0 S 29.6
Ieri h: 07:55 sereno Sereno 4 4 100 1006 0 S/SE 31.5
Ieri h: 06:55 sereno Sereno 0 0 93 0 0 N 0
Ieri h: 05:55 sereno Sereno 0 0 100 0 0 N 0
Ieri h: 04:55 sereno Sereno 0 0 67 0 0 N 0
Ieri h: 03:55 sereno Sereno 0 0 100 0 0 N 0
Ieri h: 02:55 sereno Sereno 0 0 100 0 0 N 0
Ieri h: 01:55 sereno Sereno 0 0 76 0 0 N 0
Ieri h: 00:55 sereno Sereno 0 0 100 0 0 N 0